[[{"header":{"parameterUnit":"m.s-1","parameterCategory":1,"la1":30.2991,"la2":30.254,"lo1":-89.0895,"lo2":-89.0444,"dy":0.0017,"dx":0.0017,"nx":28,"ny":28,"refTime":"2024-06-27T09:00:00:Z","depth":0,"parameterNumber":2,"parameterNumberName":"U-component_of_WINDS"},"data":[0,0,0,0,0,0,0,0,0,0,0,0,0,0,0,0,0,0,0,0,0,0,0,0,0,0,0,0,0,0,0,0,0,0,0,0,0,0,0,0,0,0,0,0,0,0,0,0,0,0,0,0,0,0,0,0,0,0,3.828,3.8283,0,3.8502,3.8504,3.8507,3.8516,3.8514,3.8511,3.8508,3.8737,3.8745,3.8753,0,0,0,0,0,0,0,0,0,0,0,0,0,3.7866,3.7873,3.828,3.8283,3.8286,3.8501,3.8504,3.8507,3.8517,3.8513,3.851,3.8507,3.8734,3.8744,3.8754,0,0,0,0,0,0,0,0,0,0,0,0,0,3.8062,3.7876,3.8279,3.8316,3.8322,3.8501,3.8504,3.8508,3.8517,3.8513,3.8509,3.8506,3.8731,3.8743,3.8756,3.8913,0,0,3.8795,3.88,0,0,0,0,0,0,0,0,3.8051,3.8078,3.8308,3.8314,3.832,3.8477,3.8442,3.8644,3.8518,3.8443,3.8508,3.8504,3.8654,3.8673,3.8723,3.8924,3.8934,3.8796,3.8804,3.8809,3.8813,0,0,0,0,0,0,0,3.8038,3.8068,3.8368,3.8311,3.8319,3.8322,3.8345,3.848,3.8568,3.8449,3.8451,3.8477,3.8656,3.871,3.8728,3.8937,3.8796,3.8807,3.8815,3.882,3.9278,3.9283,0,0,0,0,0,0,3.8017,3.8057,3.8361,3.8374,3.8173,3.8332,3.8359,3.8431,3.8566,3.8583,3.848,3.8476,3.8691,3.8713,3.8736,3.8929,3.8809,3.8821,3.8828,3.9274,3.9279,3.9284,0,0,0,0,0,0,3.8008,3.8044,3.8352,3.8216,3.8255,3.8344,3.8425,3.8437,3.8491,3.8589,3.8605,3.8519,3.8688,3.8718,3.8869,3.8937,3.8827,3.8838,3.9269,3.9276,3.9282,3.9316,0,0,0,0,0,0,3.7996,3.804,3.8101,3.8217,3.8263,3.8481,3.8429,3.8444,3.8513,3.8511,3.863,3.8646,3.8688,3.885,3.8882,3.8953,3.8848,3.9263,3.9272,3.928,3.931,3.9323,3.9335,0,0,0,0,0,3.7981,3.8103,3.8104,3.8141,3.834,3.8484,3.851,3.8555,3.8519,3.858,3.8643,3.8642,3.8925,3.8865,3.8901,3.8977,3.9259,3.9269,3.9279,3.9304,3.9321,3.9335,0,0,0,0,0,0,3.7993,3.8118,3.8122,3.8284,3.8374,3.8486,3.8565,3.8572,3.8674,3.8667,3.8719,3.8746,3.8895,3.8951,3.8883,3.9137,3.9088,3.9105,3.9094,3.9111,3.9124,3.9107,3.8859,0,0,0,0,0,3.8014,3.812,3.8225,3.8358,3.8403,3.8476,3.8541,3.8567,3.8662,3.87,3.8774,3.8866,3.8975,3.9047,3.9153,3.9318,3.9344,3.9388,3.9401,3.9411,3.9426,3.9516,3.9537,3.9318,3.9318,3.9317,0,0,3.806,3.8141,3.8205,3.8363,3.8435,3.8544,3.8508,3.8625,3.8706,3.8718,3.8864,3.8922,3.9028,3.9186,3.926,3.9238,3.9492,3.9424,3.9431,3.9441,3.9529,3.9549,3.9568,3.9325,3.9323,3.9322,0,0,3.8198,3.8271,3.8389,3.8462,3.8572,3.862,3.8648,3.876,3.8798,3.8946,3.8957,3.9054,3.9242,3.9317,3.938,3.9546,3.9549,3.958,3.9647,3.9735,3.9752,3.9767,3.9826,3.9846,3.9594,3.9594,3.9594,0,3.824,3.8405,3.845,3.8567,3.8635,3.865,3.877,3.8839,3.8978,3.9025,3.8999,3.9234,3.9307,3.9482,3.9523,3.9574,3.9607,3.9566,3.9746,3.9762,3.9777,3.9833,3.9855,3.9597,3.9597,3.9596,3.9596,0,3.8451,3.8565,3.8648,3.8781,3.8859,3.8977,3.904,3.9113,3.9133,3.9184,3.9334,3.9422,3.9545,3.9589,3.961,3.9768,3.9751,3.9735,3.9686,3.98,3.9854,3.9876,3.9601,3.96,3.9599,3.9598,0,0,3.8603,3.8758,3.8788,3.8848,3.897,3.9059,3.9178,3.9298,3.936,3.9456,3.9556,3.9714,3.97,3.9771,3.98,3.9878,4.0003,3.9852,3.9855,3.9876,4.0181,4.0192,4.0216,4.0005,4.001,4.0013,4.0172,0,3.8753,3.8964,3.9008,3.919,3.9296,3.9311,3.9415,3.9501,3.9551,3.9648,3.9705,3.9815,3.9788,3.9831,3.9908,3.9971,4.0064,3.996,4.0099,4.0104,4.0071,4.0244,4.0257,4.0402,4.0193,4.0197,4.0199,0,3.8957,3.9057,3.9249,3.9356,3.9402,3.9494,3.9608,3.97,3.9798,3.983,3.9909,3.993,4.0054,4.0,4.0172,4.01,4.016,4.0199,4.0206,4.022,4.0158,4.0262,4.0449,4.0471,4.0233,4.023,4.0228,0,3.9047,3.9229,3.9368,3.9419,3.9548,3.9612,3.9669,3.9763,3.9832,3.9932,3.9977,4.009,4.0152,4.0239,4.029,4.0246,4.0457,4.0408,4.0487,4.0485,4.053,4.0526,4.0728,4.057,4.0569,4.0569,4.0569,0,3.921,3.9327,3.941,3.9495,3.9626,3.9675,3.9804,3.9861,3.9944,4.0041,4.0062,4.0152,4.0214,4.0313,4.0354,4.049,4.0518,4.0546,4.0556,4.0544,4.054,4.0583,4.0574,4.0575,4.0574,4.0572,4.0571,0,3.9332,3.9392,3.9544,3.9654,3.9684,3.9776,3.9869,3.9953,4.0003,4.0125,4.0157,4.0237,4.0354,4.0414,4.0561,4.0588,4.0741,4.0744,4.0707,4.0711,4.0786,4.0778,4.1022,4.1056,4.0875,4.0877,4.0878,0,3.9432,3.9522,3.9641,3.9707,3.9765,3.9871,3.9941,3.9994,4.0066,4.0184,4.0253,4.0372,4.0469,4.0656,4.0728,4.084,4.0846,4.0924,4.0863,4.0848,4.0846,4.084,4.0849,4.0935,4.0936,4.0938,4.0939,0,3.9602,3.9627,3.9728,3.984,3.9923,4.0013,4.0103,4.0155,4.0222,4.0303,4.0423,4.0498,4.0648,4.0765,4.0882,4.0941,4.0952,4.0957,4.0981,4.097,4.0944,4.0958,4.0736,4.0951,4.095,4.0949,4.0949,4.0948,3.9716,3.9796,3.9892,4.0004,4.0076,4.0159,4.0242,4.0303,4.0404,4.0529,4.0554,4.0681,4.0776,4.0935,4.0998,4.1098,4.1081,4.1116,4.1125,4.1133,4.1136,4.0929,4.112,4.1119,4.1119,4.1119,4.1119,0,3.9886,3.9949,4.0051,4.0174,4.0262,4.0263,4.0362,4.0435,4.0546,4.0634,4.073,4.0867,4.0981,4.1061,4.1177,4.1242,4.1249,4.127,4.1266,4.1279,4.1144,4.1112,4.1262,4.1262,4.1262,4.1262,4.1262,4.1262,3.9985,4.0121,4.0158,4.033,4.0392,4.0516,4.0572,4.0648,4.0718,4.0871,4.0965,4.1016,4.1102,4.1223,4.1328,4.1349,4.139,4.1411,4.1432,4.1304,4.1289,4.1274,4.1244,4.142,4.142,4.1558,4.1559,4.156]},{"header":{"parameterUnit":"m.s-1","parameterCategory":1,"la1":30.2991,"la2":30.254,"lo1":-89.0895,"lo2":-89.0444,"dy":0.0017,"dx":0.0017,"nx":28,"ny":28,"refTime":"2024-06-27T09:00:00:Z","depth":0,"parameterNumber":3,"parameterNumberName":"V-component_of_WINDS"},"data":[0,0,0,0,0,0,0,0,0,0,0,0,0,0,0,0,0,0,0,0,0,0,0,0,0,0,0,0,0,0,0,0,0,0,0,0,0,0,0,0,0,0,0,0,0,0,0,0,0,0,0,0,0,0,0,0,0,0,4.0046,4.0048,0,4.0204,4.0206,4.0207,4.019,4.0187,4.0185,4.0182,4.0341,4.0347,4.0354,0,0,0,0,0,0,0,0,0,0,0,0,0,3.9727,3.9733,4.0046,4.0048,4.005,4.0204,4.0206,4.0208,4.019,4.0187,4.0184,4.0181,4.0339,4.0347,4.0354,0,0,0,0,0,0,0,0,0,0,0,0,0,3.9873,3.9735,4.0046,4.006,4.0063,4.0203,4.0206,4.0208,4.0191,4.0187,4.0183,4.018,4.0336,4.0346,4.0355,4.0491,0,0,4.0386,4.039,0,0,0,0,0,0,0,0,3.9865,3.9885,4.0056,4.0059,4.0062,4.0173,4.0151,4.0303,4.0192,4.0142,4.0182,4.0178,4.0288,4.0302,4.0339,4.0499,4.0506,4.0386,4.0392,4.0397,4.0399,0,0,0,0,0,0,0,3.9855,3.9878,4.0108,4.0058,4.0062,4.0057,4.0074,4.018,4.0234,4.0146,4.0145,4.0164,4.0289,4.033,4.0343,4.0508,4.0386,4.0395,4.0401,4.0405,4.0787,4.0791,0,0,0,0,0,0,3.9842,3.987,4.0103,4.0113,3.9953,4.0066,4.0085,4.0141,4.0233,4.0243,4.0167,4.0163,4.0315,4.0331,4.0348,4.0514,4.0397,4.0406,4.0411,4.0783,4.0788,4.0793,0,0,0,0,0,0,3.9835,3.9863,4.0097,3.9991,4.0021,4.0076,4.014,4.0147,4.0187,4.0249,4.0258,4.0199,4.0313,4.0335,4.0456,4.0519,4.041,4.0419,4.0778,4.0785,4.079,4.0847,0,0,0,0,0,0,3.9826,3.986,3.9913,3.9993,4.0027,4.0203,4.0143,4.0152,4.0205,4.02,4.0281,4.0291,4.0311,4.0442,4.0466,4.0531,4.0427,4.0773,4.0781,4.0788,4.0839,4.0854,4.0867,0,0,0,0,0,3.9815,3.9922,3.9916,3.9944,4.0094,4.0207,4.0226,4.0248,4.021,4.0263,4.0303,4.0289,4.0508,4.0454,4.0482,4.055,4.0769,4.0779,4.0788,4.0833,4.0851,4.0866,0,0,0,0,0,0,3.9848,3.9933,3.9927,4.0064,4.0128,4.0204,4.0272,4.0266,4.0343,4.0335,4.0358,4.0377,4.05,4.0537,4.0475,4.0687,4.0633,4.0649,4.0658,4.0676,4.0689,4.0678,4.0435,0,0,0,0,0,3.9871,3.9957,4.0026,4.014,4.0173,4.0217,4.0267,4.0278,4.0346,4.0373,4.0421,4.0486,4.057,4.0625,4.0705,4.0844,4.0862,4.0905,4.0919,4.093,4.0943,4.102,4.104,4.0824,4.0824,4.0824,0,0,3.992,3.9977,4.0029,4.0148,4.0199,4.0287,4.024,4.0334,4.0399,4.0387,4.0505,4.0543,4.0617,4.0748,4.0808,4.0783,4.1006,4.0942,4.095,4.0958,4.1032,4.1052,4.107,4.0831,4.083,4.0829,0,0,4.0054,4.0105,4.0206,4.0259,4.0338,4.0367,4.0391,4.0468,4.0493,4.0612,4.0604,4.0681,4.0825,4.0879,4.0925,4.1079,4.1069,4.1105,4.1177,4.1251,4.1268,4.1283,4.1339,4.1359,4.1118,4.1118,4.1118,0,4.0104,4.0237,4.0258,4.0355,4.0407,4.04,4.0503,4.0552,4.0653,4.0689,4.0659,4.084,4.089,4.1034,4.1071,4.1109,4.1137,4.1096,4.1264,4.1279,4.1294,4.1347,4.1368,4.1122,4.1121,4.1121,4.112,0,4.0295,4.0387,4.0459,4.0558,4.0618,4.0717,4.0753,4.0811,4.0817,4.0848,4.097,4.1029,4.1122,4.1156,4.1163,4.1302,4.1284,4.1259,4.1205,4.1318,4.1369,4.1389,4.1127,4.1126,4.1125,4.1124,0,0,4.0455,4.0565,4.0591,4.0636,4.0723,4.0794,4.0892,4.0984,4.1033,4.1103,4.1185,4.1307,4.1285,4.1337,4.1349,4.1415,4.1534,4.1382,4.1384,4.1409,4.1691,4.171,4.1734,4.1528,4.1532,4.1535,4.1685,0,4.0598,4.0773,4.0796,4.095,4.1036,4.103,4.1116,4.1178,4.121,4.1286,4.132,4.1407,4.1371,4.1402,4.1467,4.1506,4.1591,4.1495,4.1605,4.1608,4.1587,4.176,4.178,4.192,4.1705,4.1709,4.1711,0,4.0789,4.0865,4.1029,4.1104,4.1141,4.1218,4.1304,4.1377,4.1446,4.1465,4.1524,4.1528,4.1628,4.157,4.1709,4.1643,4.1689,4.1715,4.1721,4.1733,4.1667,4.1777,4.1965,4.1986,4.1742,4.174,4.1737,0,4.089,4.1034,4.115,4.1189,4.1279,4.1333,4.1373,4.144,4.1494,4.1568,4.1603,4.1688,4.1735,4.18,4.1827,4.1782,4.1964,4.1908,4.1983,4.1982,4.2022,4.2019,4.222,4.205,4.205,4.2049,4.2049,0,4.1049,4.1149,4.1197,4.1269,4.1381,4.1405,4.1516,4.1553,4.1612,4.1691,4.1691,4.1764,4.1794,4.1873,4.1893,4.2006,4.2026,4.2044,4.2049,4.2045,4.2043,4.2076,4.2067,4.2055,4.2054,4.2052,4.2052,0,4.1181,4.1217,4.1344,4.142,4.1441,4.1521,4.1585,4.1654,4.1685,4.1785,4.1809,4.1858,4.195,4.1983,4.2094,4.2108,4.2239,4.2234,4.2216,4.2217,4.229,4.2283,4.252,4.2552,4.236,4.2361,4.2363,0,4.128,4.1358,4.1442,4.1495,4.1538,4.1623,4.1678,4.1705,4.1762,4.1848,4.1907,4.1998,4.2073,4.222,4.2265,4.235,4.2349,4.2426,4.2361,4.2355,4.2351,4.2346,4.2355,4.2438,4.244,4.2442,4.2443,0,4.1452,4.1467,4.1547,4.1634,4.17,4.1769,4.1837,4.188,4.1916,4.198,4.2075,4.2133,4.2248,4.2339,4.2426,4.2466,4.2461,4.2463,4.2485,4.2482,4.2468,4.2478,4.2249,4.2457,4.2456,4.2455,4.2454,4.2453,4.1572,4.1641,4.1711,4.1801,4.1854,4.1917,4.1986,4.2026,4.2106,4.2202,4.2212,4.2314,4.2382,4.2499,4.2543,4.2623,4.2602,4.2633,4.2641,4.2649,4.2655,4.2455,4.2639,4.2638,4.2638,4.2638,4.2637,0,4.1745,4.179,4.1872,4.1967,4.2037,4.2027,4.21,4.216,4.225,4.2314,4.2388,4.2497,4.2586,4.2637,4.2726,4.278,4.2779,4.2802,4.2799,4.2808,4.2668,4.2641,4.2801,4.2801,4.2801,4.2801,4.2801,4.2801,4.1844,4.196,4.1982,4.2125,4.2169,4.227,4.2313,4.2371,4.2423,4.2545,4.2619,4.2652,4.2711,4.2804,4.2885,4.2897,4.293,4.2955,4.2966,4.2835,4.2818,4.2802,4.2777,4.2962,4.2962,4.3099,4.3101,4.3102]}]]